KQ4UPF Weather Reports


Display with metric or nautical units.
time (UTC)temp
F
wind
direction
speed
MPH
gust
MPH
rain 1hr
in
rain 24hr
in
rain mn
in
humidity
%
barometer
mb
20260504174439 77 288 3.0 4.0 0.00 0.00 0.00 50 1016.3
20260504173936 77 331 2.0 3.0 0.00 0.00 0.00 53 1016.3
20260504173432 77 351 2.0 4.0 0.00 0.00 0.00 51 1016.4
20260504172930 77 105 2.0 2.0 0.00 0.00 0.00 51 1016.4
20260504172426 77 198 1.0 3.0 0.00 0.00 0.00 46 1016.5
20260504171922 77 313 2.0 3.0 0.00 0.00 0.00 45 1016.9
20260504171420 76 245 3.0 6.0 0.00 0.00 0.00 48 1016.7
20260504170916 75 352 0.0 2.0 0.00 0.00 0.00 45 1016.8
20260504170413 74 344 2.0 7.0 0.00 0.00 0.00 51 1016.7
20260504160332 73 14 4.0 7.0 0.00 0.00 0.00 49 1017.3
20260504150756 72 55 2.0 3.0 0.00 0.00 0.00 54 1017.6
20260504150253 72 92 2.0 6.0 0.00 0.00 0.00 44 1017.6
20260504141223 67 89 2.0 3.0 0.00 0.00 0.00 59 1018.2
20260504140720 68 74 1.0 3.0 0.00 0.00 0.00 52 1018.4
20260504140215 67 90 0.0 2.0 0.00 0.00 0.00 55 1018.3
20260504130643 61 143 0.0 2.0 0.00 0.00 0.00 71 1018.6
20260504130140 60 143 1.0 1.0 0.00 0.00 0.00 71 1018.5
20260504120104 49 219 0.0 1.0 0.00 0.00 0.00 96 1018.2
20260504110531 46 231 1.0 1.0 0.00 0.00 0.00 97 1017.9
20260504100454 46 233 0.0 1.0 0.00 0.00 0.00 96 1017.6
20260504081847 46 249 1.0 1.0 0.00 0.00 0.00 95 1017.5
20260504081343 46 249 1.0 1.0 0.00 0.00 0.00 94 1017.6
20260504080839 46 249 1.0 1.0 0.00 0.00 0.00 94 1017.6
20260504080337 46 249 2.0 2.0 0.00 0.00 0.00 95 1017.5
20260504070304 47 253 1.0 1.0 0.00 0.00 0.00 93 1018.1
20260504060224 46 292 1.0 1.0 0.00 0.00 0.00 93 1018.7
20260504050652 47 293 1.0 1.0 0.00 0.00 0.00 91 1018.8
20260504050149 47 293 0.0 0.0 0.00 0.00 0.00 91 1018.8
20260504045646 47 293 0.0 1.0 0.00 0.00 0.00 91 1018.7
20260504045146 47 292 1.0 1.0 0.00 0.00 0.00 90 1018.6
20260504044644 47 293 1.0 1.0 0.00 0.00 0.00 90 1018.6
20260504044141 47 293 1.0 1.0 0.00 0.00 0.00 89 1018.5
20260504043638 47 293 1.0 1.0 0.00 0.00 0.00 89 1018.8
20260504043135 48 293 0.0 0.0 0.00 0.00 0.00 88 1018.7
20260504042632 48 293 0.0 0.0 0.00 0.00 0.00 87 1018.8
20260504042129 48 292 1.0 1.0 0.00 0.00 0.00 88 1018.6
20260504041624 48 293 1.0 1.0 0.00 0.00 0.00 88 1018.8
20260504041121 48 293 0.0 1.0 0.00 0.00 0.00 87 1018.7
20260504040618 48 293 1.0 1.0 0.00 0.00 0.00 88 1018.9
20260504040115 48 293 0.0 1.0 0.00 0.00 0.00 87 1018.9
20260504035612 48 293 1.0 1.0 0.00 0.00 0.00 87 1019.2
20260504035108 48 293 1.0 1.0 0.00 0.00 0.00 87 1019.0
20260504034606 49 293 1.0 1.0 0.00 0.00 0.00 86 1019.0
20260504034103 49 319 2.0 2.0 0.00 0.00 0.00 87 1019.2
20260504033601 49 319 1.0 1.0 0.00 0.00 0.00 86 1019.1
20260504033058 49 319 1.0 1.0 0.00 0.00 0.00 86 1019.3
20260504032555 49 319 1.0 1.0 0.00 0.00 0.00 87 1019.4
20260504032052 49 319 1.0 1.0 0.00 0.00 0.00 87 1019.3
20260504031548 49 319 1.0 1.0 0.00 0.00 0.00 86 1019.4
20260504031044 49 319 0.0 0.0 0.00 0.00 0.00 86 1019.3
20260504030542 49 319 1.0 1.0 0.00 0.00 0.00 86 1019.6
20260504030038 50 319 0.0 1.0 0.00 0.00 0.00 84 1019.6
20260504025536 49 319 1.0 1.0 0.00 0.00 0.00 83 1019.4
20260504025032 49 319 1.0 1.0 0.00 0.00 0.00 85 1019.1
20260504024529 50 319 0.0 0.0 0.00 0.00 0.00 84 1019.3
20260504024026 50 319 0.0 0.0 0.00 0.00 0.00 84 1019.4
20260504023522 50 319 0.0 1.0 0.00 0.00 0.00 82 1019.1
20260504023018 50 319 1.0 1.0 0.00 0.00 0.00 84 1019.1
20260504022514 51 319 0.0 0.0 0.00 0.00 0.00 83 1018.9
20260504022011 51 319 0.0 1.0 0.00 0.00 0.00 82 1018.8
20260504021509 51 319 0.0 1.0 0.00 0.00 0.00 82 1018.9
20260504021006 51 319 1.0 1.0 0.00 0.00 0.00 83 1018.8
20260504020502 51 319 1.0 1.0 0.00 0.00 0.00 81 1018.6
20260504015959 51 319 0.0 0.0 0.00 0.00 0.00 82 1018.6
20260504015455 52 319 0.0 0.0 0.00 0.00 0.00 82 1018.8
20260504014951 52 318 1.0 1.0 0.00 0.00 0.00 80 1018.6
20260504014447 52 321 1.0 1.0 0.00 0.00 0.00 79 1018.7
20260504013944 53 322 1.0 1.0 0.00 0.00 0.00 80 1018.5
20260504013443 53 322 1.0 1.0 0.00 0.00 0.00 78 1018.4
20260504012938 53 326 0.0 0.0 0.00 0.00 0.00 79 1018.4
20260504012437 54 326 0.0 1.0 0.00 0.00 0.00 79 1018.6
20260504011934 54 326 1.0 1.0 0.00 0.00 0.00 78 1018.3
20260504011430 54 326 1.0 1.0 0.00 0.00 0.00 77 1018.3
20260504010926 54 326 1.0 1.0 0.00 0.00 0.00 75 1018.4
20260504010422 54 326 1.0 1.0 0.00 0.00 0.00 77 1018.4
20260504005919 54 326 1.0 1.0 0.00 0.00 0.00 79 1018.3
20260504005415 55 326 0.0 0.0 0.00 0.00 0.00 78 1018.3
20260504004913 55 326 0.0 0.0 0.00 0.00 0.00 76 1018.4
20260504004411 55 326 0.0 1.0 0.00 0.00 0.00 77 1018.3
20260504003908 55 326 1.0 1.0 0.00 0.00 0.00 77 1018.3
20260504003404 55 326 0.0 0.0 0.00 0.00 0.00 75 1018.4
20260504002900 56 326 0.0 0.0 0.00 0.00 0.00 72 1018.3
20260504002357 57 326 0.0 0.0 0.00 0.00 0.00 73 1018.3
20260504001855 57 326 1.0 1.0 0.00 0.00 0.00 70 1018.5
20260504001352 57 326 0.0 0.0 0.00 0.00 0.00 67 1018.3
20260504000849 58 326 0.0 0.0 0.00 0.00 0.00 62 1018.2
20260504000346 59 326 0.0 0.0 0.00 0.00 0.00 61 1018.3
20260503235844 60 326 0.0 0.0 0.00 0.00 0.00 61 1018.1
20260503235341 60 326 0.0 0.0 0.00 0.00 0.00 59 1018.1
20260503234838 61 326 0.0 0.0 0.00 0.00 0.00 59 1018.1
20260503234336 61 326 0.0 0.0 0.00 0.00 0.00 55 1018.2
20260503233833 62 326 0.0 0.0 0.00 0.00 0.00 54 1018.2
20260503233329 62 326 1.0 1.0 0.00 0.00 0.00 55 1018.2
20260503232826 62 326 1.0 1.0 0.00 0.00 0.00 51 1018.2
20260503232323 63 326 1.0 2.0 0.00 0.00 0.00 53 1018.3
20260503231821 63 286 1.0 1.0 0.00 0.00 0.00 51 1018.3
20260503231318 63 286 1.0 2.0 0.00 0.00 0.00 51 1018.4
20260503230814 64 287 0.0 1.0 0.00 0.00 0.00 51 1018.3
20260503230311 65 287 1.0 1.0 0.00 0.00 0.00 49 1018.3
20260503225809 66 308 1.0 3.0 0.00 0.00 0.00 47 1018.3
20260503225304 67 31 2.0 3.0 0.00 0.00 0.00 44 1018.5
20260503224801 68 22 1.0 1.0 0.00 0.00 0.00 47 1018.4
20260503224258 68 23 1.0 1.0 0.00 0.00 0.00 49 1018.3
20260503223756 68 25 1.0 2.0 0.00 0.00 0.00 47 1018.3
20260503223253 68 358 2.0 4.0 0.00 0.00 0.00 43 1018.4
20260503222749 68 348 3.0 7.0 0.00 0.00 0.00 41 1018.4
20260503222247 69 323 4.0 4.0 0.00 0.00 0.00 42 1018.4
20260503221746 69 342 3.0 7.0 0.00 0.00 0.00 40 1018.5
20260503221243 69 328 2.0 3.0 0.00 0.00 0.00 41 1018.6
20260503220739 69 290 3.0 4.0 0.00 0.00 0.00 41 1018.6
20260503220236 69 35 3.0 4.0 0.00 0.00 0.00 39 1018.5
20260503215733 69 359 2.0 6.0 0.00 0.00 0.00 41 1018.8
20260503215230 70 349 2.0 3.0 0.00 0.00 0.00 39 1018.8
20260503214728 69 312 0.0 3.0 0.00 0.00 0.00 42 1018.6
20260503214225 69 328 1.0 6.0 0.00 0.00 0.00 40 1018.8
20260503213723 69 344 1.0 4.0 0.00 0.00 0.00 40 1018.8
20260503213220 70 277 4.0 6.0 0.00 0.00 0.00 38 1018.8
20260503212716 69 309 3.0 3.0 0.00 0.00 0.00 42 1018.9
20260503212214 69 16 4.0 7.0 0.00 0.00 0.00 38 1018.9
20260503211712 69 343 3.0 7.0 0.00 0.00 0.00 40 1019.0
20260503211208 69 329 3.0 7.0 0.00 0.00 0.00 43 1019.2
20260503210704 70 3 2.0 4.0 0.00 0.00 0.00 40 1019.1
20260503210201 70 95 0.0 3.0 0.00 0.00 0.00 42 1019.2
20260503205655 69 315 2.0 6.0 0.00 0.00 0.00 36 1019.2
20260503205152 70 345 2.0 10.0 0.00 0.00 0.00 45 1019.2
20260503204649 70 11 2.0 3.0 0.00 0.00 0.00 40 1019.6
20260503204147 70 8 1.0 3.0 0.00 0.00 0.00 39 1019.4
20260503203644 69 21 3.0 6.0 0.00 0.00 0.00 39 1019.7
20260503203141 70 330 3.0 7.0 0.00 0.00 0.00 37 1019.8
20260503202638 70 323 2.0 2.0 0.00 0.00 0.00 39 1019.7
20260503202137 69 240 0.0 2.0 0.00 0.00 0.00 42 1020.0
20260503201634 70 351 2.0 7.0 0.00 0.00 0.00 40 1019.8
20260503201131 69 355 2.0 2.0 0.00 0.00 0.00 41 1019.9
20260503200627 70 354 3.0 6.0 0.00 0.00 0.00 39 1020.1
20260503200124 70 347 3.0 3.0 0.00 0.00 0.00 39 1020.1
20260503195621 69 337 0.0 6.0 0.00 0.00 0.00 40 1020.1
20260503195118 69 301 4.0 7.0 0.00 0.00 0.00 44 1020.3
20260503194615 69 338 4.0 8.0 0.00 0.00 0.00 41 1020.4
20260503194110 69 305 3.0 4.0 0.00 0.00 0.00 42 1020.6
20260503193607 69 314 3.0 6.0 0.00 0.00 0.00 43 1020.5
20260503193102 69 354 1.0 2.0 0.00 0.00 0.00 46 1020.6
20260503192558 69 38 2.0 6.0 0.00 0.00 0.00 40 1020.7
20260503192054 69 305 1.0 6.0 0.00 0.00 0.00 45 1021.0
20260503191551 69 40 3.0 4.0 0.00 0.00 0.00 44 1020.9
20260503191048 68 19 2.0 2.0 0.00 0.00 0.00 46 1021.1
20260503190545 68 317 2.0 4.0 0.00 0.00 0.00 43 1021.2
20260503190042 68 337 6.0 8.0 0.00 0.00 0.00 45 1021.2
20260503185539 69 308 7.0 8.0 0.00 0.00 0.00 45 1021.3
20260503185038 68 109 3.0 3.0 0.00 0.00 0.00 40 1021.4
20260503184535 69 313 4.0 6.0 0.00 0.00 0.00 42 1021.4
20260503184031 68 321 0.0 3.0 0.00 0.00 0.00 48 1021.5
20260503183528 68 3 3.0 4.0 0.00 0.00 0.00 43 1021.6
20260503183025 68 301 1.0 2.0 0.00 0.00 0.00 43 1021.5
20260503182524 68 7 0.0 3.0 0.00 0.00 0.00 44 1021.6
20260503182021 68 192 2.0 3.0 0.00 0.00 0.00 42 1021.8
20260503181518 67 1 2.0 3.0 0.00 0.00 0.00 42 1021.9
20260503181014 66 301 1.0 4.0 0.00 0.00 0.00 40 1021.7
20260503180512 66 11 4.0 4.0 0.00 0.00 0.00 42 1021.8
20260503180009 66 340 3.0 6.0 0.00 0.00 0.00 44 1021.9
20260503175506 65 0 1.0 3.0 0.00 0.00 0.00 43 1021.9
20260503175003 67 318 4.0 6.0 0.00 0.00 0.00 40 1022.0